SCP
0 0 0 0 0 0 0 0 0 0 0 0 0 0 0 0 0 0 0 0 0 0 0 0 0 0 0 0 0 0 0 0 0 0 0 0 0 0 0 0 0 0 0 0
0 0 0 0 0 0 0 0 0 0 0 0 0 0 0 0 0 0 0 0 0 0 0 0 0 0 0 0 0 0 0 0 0 0 0 0 0 0 0 0 0 0 0 0
0 0 0 0 0 0 0 0 0 0 0 0 0 0 0 0 0 0 0 0 0 0 0 0 0 0 0 0 0 0 0 0 0 0 0 0 0 0 0 0 0 0 0 0
0 0 0 0 0 0 0 0 0 0 0 0 0 0 0 0 0 0 0 0 0 0 0 0 0 0 0 0 0 0 0 0 0 0 0 0 0 0 0 0 0 0 0 0
0 0 0 0 0 0 0 0 0 0 0 0 0 0 0 0 0 0 0 0 0 0 0 0 0 0 0 0 0 0 0 0 0 0 0 0 0 0 0 0 0 0 0 0
0 0 0 0 0 0 0 0 0 0 0 0 0 0 0 0 0 0 0 0 0 0 0 0 0 0 0 0 0 0 0 0 0 0 0 0 0 0 0 0 0 0 0 0
0 0 0 0 0 0 0 0 0 0 0 0 0 0 0 0 0 0 0 0 0 0 0 0 0 0 0 0 0 0 0 0 0 0 0 0 0 0 0 0 0 0 0 0
0 0 0 0 0 0 0 0 0 0 0 0 0 0 0 0 0 0 0 0 0 0 0 0 0 0 0 0 0 0 0 0 0 0 0 0 0 0 0 0 0 0 0 0
0 0 0 0 0 0 0 0 0 0 0 0 0 0 0 0 0 0 0 0 0 0 0 0 0 0 0 0 0 0 0 0 0 0 0 0 0 0 0 0 0 0 0 0
0 0 0 0 0 0 0 0 0 0 0 0 0 0 0 0 0 0 0 0 0 0 0 0 0 0 0 0 0 0 0 0 0 0 0 0 0 0 0 0 0 0 0 0
0 0 0 0 0 0 0 0 0 0 0 0 0 0 0 0 0 0 0 0 0 0 0 0 0 0 0 0 0 0 0 0 0 0 0 0 0 0 0 0 0 0 0 0
0 0 0 0 0 0 0 0 0 0 0 0 0 0 0 0 0 0 0 0 0 0 0 0 0 0 0 0 0 0 0 0 0 0 0 0 0 0 0 0 0 0 0 0
0 0 0 0 0 0 0 0 0 0 0 0 0 0 0 0 0 0 0 0 0 0 0 0 0 0 0 0 0 0 0 0 0 0 0 0 0 0 0 0 0 0 0 0
0 0 0 0 0 0 0 0 0 0 0 0 0 0 0 0 0 0 0 0 0 0 0 0 0 0 0 0 0 0 0 0 0 0 0 0 0 0 0 0 0 0 0 0
0 0 0 0 0 0 0 0 0 0 0 0 0 0 0 0 0 0 0 0 0 0 0 0 0 0 0 0 0 0 0 0 0 0 0 0 0 0 0 0 0 0 0 0
0 0 0 0 0 0 0 0 0 0 0 0 0 0 0 0 0 0 0 0 0 0 0 0 0 0 0 0 0 0 0 0 0 0 0 0 0 0 0 0 0 0 0 0
0 0 0 0 0 0 0 0 0 0 0 0 0 0 0 0 0 0 0 0 0 0 0 0 0 0 0 0 0 0 0 0 0 0 0 0 0 0 0 0 0 0 0 0
0 0 0 0 0 0 0 0 0 0 0 0 0 0 0 0 0 0 0 0 0 0 0 0 0 0 0 0 0 0 0 0 0 0 0 0 0 0 0 0 0 0 0 0
0 0 0 0 0 0 0 0 0 0 0 0 0 0 0 0 0 0 0 0 0 0 0 0 0 0 0 0 0 0 0 0 0 0 0 0 0 0 0 0 0 0 0 0
0 0 0 0 0 0 0 0 0 0 0 0 0 0 0 0 0 0 0 0 0 0 0 0 0 0 0 0 0 0 0 0 0 0 0 0 0 0 0 0 0 0 0 0
0 0 0 0 0 0 -0 0 0 0 0 0 0 0 0 0 0 0 0 0 0 0 0 0 0 0 0 0 0 0 0 0 0 0 0 0 0 0 0 0 0 0 0 0
0 0 0 0 0 0 -0 -0 0 0 0 0 0 0 0 0 0 0 0 0 0 0 0 0 0 0 0 0 0 0 0 0 0 0 0 0 0 0 0 0 0 0 0 0
0 0 0 0 0 -0 -0 -0 -0 0 0 0 0 0 0 0 0 0 0 0 0 0 0 0 0 0 0 0 0 0 0 0 0 0 0 0 0 0 0 0 0 0 0 0
0 0 0 0 0 -0 -0 -0 -0 0 0 0 0 0 0 0 0 0 0 0 0 0 0 0 0 0 0 0 0 0 0 0 0 0 0 0 0 0 0 0 0 0 0 0
0 0 0 0 0 0 -0 0 0 0 0 0 0 0 0 0 0 0 0 0 0 0 0 0 0 0 0 0 0 0 0 0 0 0 0 0 0 0 0 0 0 0 0 0
0 0 0 0 0 0 0 0 0 0 0 0 0 0 0 0 0 0 0 0 0 0 0 0 0 0 0 0 0 0 0 0 0 0 0 0 0 0 0 0 0 0 0 0
0 0 0 0 0 0 0 0 0 0 0 0 0 0 0 0 0 0 0 0 0 0 0 0 0 0 0 0 0 0 0 0 0 0 0 0 0 0 0 0 0 0 0 0
Wind_Speed
8 8 7 8 9 9 11 10 9 9 10 10 8 8 7 7 6 6 7 7 7 7 6 6 6 6 5 5 4 3 2 2 2 3 3 4 4 5 5 5 6 6 6 6
5 5 5 8 10 9 10 11 12 12 13 8 7 6 6 6 6 6 6 7 7 7 7 7 7 6 6 5 5 4 3 3 3 2 3 4 4 4 5 5 5 5 5 5
4 3 5 7 6 7 6 7 7 9 7 5 6 6 6 7 6 6 6 7 7 7 6 7 7 7 6 5 5 4 3 3 3 2 3 2 3 4 4 4 4 5 5 5
3 3 6 1 2 3 5 5 6 6 5 5 6 7 7 7 6 6 6 7 7 7 7 7 6 6 5 4 4 4 4 4 3 3 2 2 2 3 3 3 4 4 4 4
3 4 7 2 0 1 3 5 3 5 6 6 6 5 4 4 5 6 7 7 7 7 7 7 6 6 4 4 4 4 4 4 4 3 3 2 2 2 2 2 3 3 3 3
3 5 5 1 1 2 3 4 1 3 5 5 5 4 3 5 7 8 8 7 6 6 6 6 6 5 4 4 4 4 4 4 4 4 4 3 3 2 2 2 2 2 2 3
5 6 6 2 1 1 2 3 4 4 4 4 4 5 6 7 8 7 7 7 6 6 5 5 5 4 3 4 4 4 4 4 4 4 4 3 2 2 2 1 1 1 2 2
4 5 5 2 0 2 3 4 4 4 4 4 5 6 6 7 6 6 6 7 6 5 5 5 5 3 4 4 4 4 3 3 4 4 3 2 2 1 1 1 1 2 2 1
5 4 2 1 3 3 4 5 5 4 5 5 6 6 6 6 6 6 6 6 6 5 5 5 5 4 4 5 4 3 3 3 3 3 2 2 1 1 1 1 1 2 2 1
5 6 5 5 5 4 5 6 6 6 6 5 6 6 6 6 6 6 6 6 6 5 5 5 5 5 5 5 4 3 3 3 2 2 2 1 1 1 1 1 2 2 2 2
6 6 6 3 3 5 5 6 6 6 6 6 6 6 6 6 6 6 6 5 5 5 5 6 6 6 5 4 4 3 3 2 2 2 2 1 1 1 2 2 2 3 3 3
5 3 4 5 4 5 5 5 6 6 6 5 5 5 6 5 5 5 5 5 5 5 5 6 6 5 5 4 3 3 2 2 2 1 1 1 1 1 1 2 2 3 3 3
5 4 6 7 6 4 5 6 6 5 5 6 5 5 5 5 5 5 5 5 5 5 5 5 5 5 5 5 3 3 3 3 2 2 1 1 1 1 1 1 1 1 1 2
5 4 6 5 5 5 6 6 5 5 5 4 4 5 4 5 5 5 5 5 5 5 5 5 5 5 5 4 3 3 3 3 2 2 2 2 2 2 1 1 1 1 1 2
4 5 6 6 6 5 5 4 4 4 4 4 4 4 4 4 5 5 5 5 4 4 4 4 4 5 5 4 4 3 2 2 1 2 2 2 2 1 1 1 1 1 0 1
5 5 5 6 6 6 5 5 5 5 5 5 5 5 5 5 5 5 4 4 4 5 5 4 5 5 5 4 3 3 2 2 2 1 1 1 1 1 1 1 1 1 0 0
3 4 5 6 6 6 6 6 6 6 5 5 5 5 5 4 4 4 4 4 4 5 5 4 5 5 4 3 3 2 2 2 2 1 1 1 1 1 1 1 1 1 1 1
5 5 5 5 6 6 6 6 5 5 5 5 5 4 4 4 5 5 5 4 4 5 5 4 4 4 4 3 3 2 2 2 2 1 1 1 1 1 1 1 1 1 1 0
4 4 5 5 5 5 5 5 5 5 5 4 4 4 4 4 4 5 4 4 4 5 4 3 5 4 3 3 3 2 2 2 2 2 2 2 1 1 1 1 1 1 1 1
3 4 4 4 4 4 5 5 4 4 4 4 4 4 4 4 4 4 4 4 4 4 4 4 4 3 3 3 3 2 2 2 2 2 1 1 1 1 0 0 0 0 1 1
4 4 4 4 5 4 4 4 4 4 4 3 3 4 4 5 4 3 3 4 4 4 4 5 3 3 3 2 3 2 2 2 2 1 1 1 1 1 1 1 0 0 1 1
4 4 5 5 4 5 4 3 3 4 4 3 3 3 4 4 4 3 3 3 4 5 4 3 3 3 3 3 2 2 2 1 1 1 1 1 1 1 1 1 1 1 1 1
4 4 4 4 4 5 4 3 3 3 4 4 4 3 4 4 3 3 4 3 3 5 4 3 3 4 5 3 2 1 1 1 1 1 1 1 1 1 1 1 1 1 1 0
4 4 4 4 3 3 4 4 3 3 3 4 4 3 3 3 3 3 3 5 6 6 3 4 5 5 4 2 2 1 1 1 1 1 1 1 1 1 1 0 0 1 0 0
4 4 3 3 3 3 4 4 3 3 3 3 4 3 3 2 3 3 3 4 5 5 3 4 5 4 3 2 2 2 1 1 1 1 1 1 1 1 1 1 0 1 0 0
3 3 3 3 3 3 3 2 2 3 3 3 3 3 2 2 3 3 3 3 3 4 3 2 3 3 2 2 2 2 2 2 2 1 1 1 1 1 1 1 1 1 1 1
3 3 2 3 2 2 2 2 3 3 3 3 3 3 3 3 3 3 3 2 2 2 2 2 2 2 2 2 2 2 2 2 2 2 1 1 1 1 1 1 0 0 0 0
Wind_Direction
270 279 272 264 259 238 227 237 251 266 276 288 305 308 312 317 320 328 334 338 340 344 344 346 346 346 344 336 335 328 316 304 276 255 238 222 214 209 207 208 206 200 199 203
271 268 270 271 264 247 241 243 251 270 279 297 310 310 310 313 314 319 324 328 334 339 340 340 340 338 336 334 334 330 328 320 313 297 262 233 219 214 208 207 203 201 202 203
265 314 291 262 242 220 227 236 240 253 277 318 313 313 311 312 310 307 313 321 327 330 331 329 330 331 329 326 329 338 337 326 312 299 282 263 242 225 214 208 201 201 201 204
280 295 247 327 67 220 237 255 243 262 294 311 308 310 302 297 300 305 312 315 320 322 323 322 322 324 323 323 330 338 332 326 317 308 289 273 256 243 231 217 206 202 201 205
241 260 271 271 205 256 250 273 253 261 285 307 320 306 297 313 316 313 313 312 312 315 314 315 319 320 322 325 333 333 326 319 314 307 296 277 261 253 248 230 221 206 204 207
231 254 260 345 32 310 258 267 7 290 294 307 314 304 319 335 323 318 317 315 314 316 317 317 318 316 317 320 319 315 311 310 310 304 292 275 266 267 261 240 232 206 209 215
233 249 270 340 329 254 250 318 345 310 298 289 281 291 304 308 309 312 315 316 316 317 318 314 314 315 315 313 304 303 304 304 301 296 284 270 265 264 252 239 222 215 215 220
209 231 260 41 121 236 307 330 317 309 304 295 292 298 298 302 306 313 316 321 324 324 324 325 325 322 314 309 305 300 297 295 293 294 287 274 257 255 245 212 200 209 208 211
218 244 341 260 267 295 313 302 307 305 305 296 297 302 305 307 310 314 318 322 326 323 324 327 328 321 309 308 309 297 290 289 285 289 285 273 252 240 228 210 207 212 209 215
258 264 280 281 277 287 292 289 295 296 295 290 291 297 303 304 307 312 317 321 322 323 323 323 324 319 310 307 302 290 283 288 289 288 284 275 252 231 223 216 213 214 215 217
254 280 298 270 277 303 304 298 297 299 295 287 286 293 298 300 304 308 312 316 318 319 320 322 323 321 316 305 295 290 294 296 293 286 275 270 267 254 235 231 230 229 223 221
253 273 274 295 319 314 305 304 304 304 308 306 296 295 299 300 303 306 310 314 317 318 319 322 324 324 327 319 301 294 298 301 296 291 284 282 285 286 266 248 257 251 241 239
272 296 285 289 299 303 302 302 304 299 297 302 305 301 300 301 304 306 308 311 312 313 316 320 323 326 329 327 308 294 292 294 292 286 273 267 266 265 279 283 232 241 230 236
270 286 285 287 300 309 302 303 303 301 300 298 301 305 305 305 305 306 307 310 310 311 314 319 322 326 327 323 314 295 289 290 286 277 271 267 261 257 258 269 279 273 194 194
273 270 273 289 297 301 303 303 303 306 314 315 313 308 306 303 302 305 311 313 311 311 316 321 322 323 327 324 321 314 298 287 280 275 266 262 263 255 245 245 256 274 320 149
298 290 279 281 288 297 302 300 298 301 308 310 313 314 309 303 301 304 309 312 313 314 316 316 315 320 326 328 328 323 317 313 297 282 266 252 246 241 233 228 232 239 227 238
294 299 292 292 294 296 292 288 290 295 300 301 305 312 312 310 310 313 318 321 315 310 310 307 309 318 324 325 322 319 319 323 312 294 281 263 245 244 242 238 240 243 259 244
267 278 278 279 285 291 293 292 291 293 294 298 306 308 304 300 302 308 315 319 317 315 312 310 311 319 320 320 318 318 318 319 315 297 282 268 262 250 232 224 229 239 260 225
286 287 289 287 286 285 288 290 290 292 296 299 300 299 298 297 301 308 314 314 309 309 316 324 323 321 317 319 319 313 318 321 320 317 308 286 274 248 234 228 232 236 226 221
297 300 302 304 303 294 291 294 296 296 299 300 299 300 304 306 308 309 308 300 295 301 312 317 315 311 311 315 318 313 313 312 310 308 306 310 315 308 283 252 241 244 226 209
297 301 303 305 306 304 298 297 296 296 301 298 291 293 297 303 307 305 300 300 310 310 311 313 313 311 314 319 314 304 301 300 302 305 305 309 308 308 309 306 281 248 236 216
293 294 296 298 301 304 306 300 293 294 300 300 298 297 298 302 306 301 286 283 305 317 317 311 312 316 320 315 305 302 301 300 300 305 301 294 287 288 300 301 284 269 255 230
290 289 290 291 291 297 306 303 295 290 291 293 294 295 294 296 298 297 303 306 311 317 316 309 319 320 316 312 310 311 313 308 301 293 289 287 280 274 269 274 280 277 266 234
288 290 292 295 291 290 296 302 300 292 288 290 289 289 292 297 297 287 291 308 315 315 315 321 322 323 326 327 325 322 317 311 305 302 303 302 300 294 285 279 277 272 254 215
283 285 286 290 285 282 286 297 300 295 293 292 297 299 290 282 285 299 305 310 319 326 325 329 334 338 337 330 329 322 317 315 312 308 305 306 311 308 297 289 267 257 241 210
274 277 278 273 274 282 286 286 288 297 301 303 309 312 312 307 300 300 305 317 325 329 330 327 332 337 337 336 335 331 327 325 322 323 324 323 324 316 304 298 281 259 239 212
272 278 281 283 280 274 276 276 280 288 292 294 300 309 313 314 315 320 324 328 330 331 329 330 335 337 338 338 335 333 331 329 325 321 319 313 307 299 296 288 271 245 213 170